{"data":{"norad_id":53899,"epoch":"2026-05-25T04:00:03.998880Z","epoch_age_seconds":60892,"freshness":"FRESH","line1":"1 53899U 22119P   26145.16671295  .00549612  00000+0  42980-2 0  9995","line2":"2 53899  53.2169 326.4529 0000627  41.9620 312.9348 15.69423471  5849","mean_motion":15.69423471,"eccentricity":6.27e-5,"inclination_deg":53.2169,"raan_deg":326.4529,"arg_perigee_deg":41.962,"mean_anomaly_deg":312.9348,"bstar":0.004298,"rev_number":584,"period_min":91.753438546606,"perigee_km":360.124296009,"apogee_km":360.96932695896,"semimajor_km":6738.683811484,"source":"CELESTRAK","updated_at":"2026-05-25T13:38:17.584370Z"}}